Temp
18 18 18 19 19 19 20 20 21 21 22 23 24 24 25 26 26 25 23 24 25 25 26 26 27 27 27 24 24 23 20 20 22 20 20 19 19 19 17 16 17 15 14 15 12
18 18 19 19 19 20 20 20 21 22 23 24 24 25 25 26 26 24 24 25 25 26 26 27 25 26 23 24 21 20 18 22 21 21 18 18 18 18 17 16 16 12 11 11 12
18 19 19 20 20 20 20 21 22 22 23 24 25 25 26 26 25 24 25 26 26 26 26 27 27 27 24 22 22 21 19 21 19 20 19 18 17 17 16 15 15 13 10 11 11
19 19 20 20 20 20 21 22 22 23 23 24 25 25 26 25 25 24 25 26 27 27 27 27 26 24 21 22 23 20 19 20 20 19 19 18 17 17 16 18 17 13 12 11 10
19 19 20 20 20 21 21 22 23 23 23 24 25 25 26 23 23 25 25 25 26 27 26 26 25 23 22 21 21 19 19 19 19 19 18 19 19 18 17 16 15 13 12 11 11
20 20 20 20 21 21 22 23 23 23 24 24 24 25 25 24 24 25 25 25 25 26 25 24 23 21 21 21 20 19 18 17 19 19 19 18 18 19 18 14 13 13 11 11 11
20 20 20 21 21 22 22 23 23 24 24 25 24 25 23 23 24 25 25 25 25 25 24 24 25 23 21 20 19 18 18 19 17 18 18 18 17 16 16 14 13 12 11 11 11
20 20 21 21 22 22 23 23 23 24 25 25 25 25 23 25 25 25 25 25 25 25 24 25 25 22 21 20 20 20 19 18 19 18 17 18 18 18 14 14 13 11 10 11 11
20 21 21 21 22 22 23 23 24 24 25 25 25 25 23 25 25 25 25 24 25 25 25 25 24 20 21 19 19 20 19 20 19 17 17 17 18 18 14 14 13 11 10 11 11
20 21 21 22 22 23 24 24 24 25 25 25 25 23 24 24 25 25 25 25 24 24 24 23 20 19 18 18 19 21 21 22 20 18 17 16 15 16 15 14 13 12 11 11 12
21 21 22 22 23 23 24 24 23 21 24 22 23 23 24 25 25 25 25 25 24 24 22 23 20 20 21 22 22 22 22 22 19 20 19 16 16 17 16 14 12 11 11 12 12
21 21 22 22 23 23 24 22 20 21 21 24 24 24 24 24 23 24 25 23 24 22 24 21 21 22 22 22 22 22 21 21 20 19 18 17 17 17 15 15 15 14 12 13 12
21 21 22 22 23 23 23 21 21 21 19 23 24 24 24 24 24 23 23 22 23 23 24 21 22 22 22 22 22 21 20 21 21 19 18 19 17 20 18 17 14 14 13 13 13
21 21 22 23 23 23 21 21 21 21 18 22 22 23 23 24 22 23 23 22 23 23 23 22 21 22 21 21 21 20 20 20 20 18 18 19 18 18 18 17 16 14 13 13 13
20 21 22 22 22 22 21 21 22 21 20 23 23 24 23 23 23 23 22 22 22 22 22 21 20 21 21 21 21 20 19 19 19 18 18 19 17 17 18 18 17 15 13 12 12
20 21 22 22 22 21 21 22 21 20 21 23 23 23 22 22 23 22 22 22 22 22 22 21 21 21 21 21 20 19 19 19 18 16 17 18 18 18 18 19 19 16 14 14 13
20 21 21 21 21 21 21 20 19 19 23 23 23 23 22 22 23 22 22 20 20 21 20 21 20 19 20 20 19 19 17 17 19 17 18 19 18 19 20 19 19 18 16 14 12
20 21 21 21 22 22 21 18 21 24 23 23 23 23 22 23 23 21 21 19 21 21 19 19 20 18 19 20 19 18 17 17 21 18 18 19 17 20 19 19 20 17 16 13 12
20 21 21 21 21 22 17 18 20 23 23 23 22 22 22 22 22 22 20 20 20 20 20 20 21 18 18 19 19 19 18 18 18 17 16 17 18 20 20 20 18 16 15 13 11
20 20 21 20 21 21 17 18 22 22 22 22 22 22 23 21 21 20 22 21 19 19 18 20 19 19 17 18 18 18 17 18 15 19 18 16 18 20 19 18 17 16 14 13 11
19 16 20 20 21 15 17 18 22 21 21 22 22 22 22 22 21 22 22 21 20 18 18 19 19 18 18 16 17 15 17 17 15 14 16 16 17 17 19 19 18 16 15 14 11
17 17 20 20 17 15 17 21 19 20 20 20 20 20 21 21 21 21 21 20 19 17 18 18 16 17 18 17 17 17 17 16 16 18 14 13 16 18 19 19 18 18 16 14 12
14 14 19 19 16 15 18 21 21 20 19 19 19 19 20 21 20 19 21 17 17 18 18 17 16 17 19 18 17 17 17 17 16 14 15 15 18 18 18 19 18 18 16 14 12
13 15 14 13 14 18 19 19 20 19 20 20 20 20 19 19 18 19 20 16 16 16 15 16 15 17 19 20 18 17 17 16 16 14 14 17 21 22 20 18 17 17 15 13 11
12 14 15 15 16 17 19 19 18 20 18 19 19 18 18 18 19 17 18 15 15 14 15 14 14 15 16 17 17 17 17 16 15 18 17 21 17 21 20 18 17 16 15 15 11
12 13 12 14 16 18 16 18 18 19 18 18 17 19 16 17 19 19 20 16 16 12 13 12 15 16 16 16 16 16 16 17 17 18 18 18 18 21 20 19 15 14 14 13 12
14 14 12 12 15 16 16 18 19 19 20 18 17 18 17 17 16 16 16 16 16 13 12 12 12 14 14 18 17 15 18 18 17 15 17 16 19 20 17 17 16 15 14 14 13
Height
838 840 841 840 841 840 840 841 841 839 836 836 835 834 833 831 829 828 829 832 829 827 825 823 821 823 825 826 826 826 856 868 859 867 864 861 865 865 868 872 872 874 876 875 885
839 841 839 842 841 841 841 842 840 839 836 837 835 833 832 831 829 829 833 830 828 826 825 822 822 822 830 831 833 843 864 857 853 851 860 860 863 867 871 875 876 880 879 879 885
841 841 841 842 841 841 843 842 840 838 836 837 835 833 832 829 831 833 831 829 828 826 824 822 821 822 832 835 839 844 860 853 855 850 852 860 866 864 870 877 870 874 880 882 884
841 841 841 842 840 843 844 841 840 838 837 836 835 833 830 829 849 834 831 828 827 825 824 821 820 828 842 844 839 854 854 852 853 852 854 861 862 865 865 861 858 863 868 876 880
841 842 841 842 842 843 843 839 840 838 837 836 835 832 832 835 838 834 831 828 826 825 823 821 823 829 844 846 844 855 856 856 855 854 856 856 860 862 861 858 858 862 869 872 875
842 842 843 844 843 842 842 839 840 839 837 836 836 834 833 842 836 834 832 830 827 826 825 823 828 827 841 847 850 851 856 860 858 856 856 861 861 859 851 856 860 862 866 868 870
843 843 844 844 844 842 841 841 839 838 836 836 837 835 834 838 834 833 832 831 829 828 828 827 825 828 839 850 848 855 864 861 862 860 860 859 865 859 852 854 860 862 863 865 867
844 843 844 844 844 842 840 841 839 836 833 835 834 837 839 835 833 833 832 832 831 831 829 828 827 830 839 845 851 857 861 870 857 859 860 861 862 846 850 853 858 859 861 861 862
844 844 844 844 844 841 840 840 839 835 833 833 833 836 842 835 833 833 832 832 831 831 830 829 829 838 844 856 865 859 872 864 863 857 861 863 858 845 850 849 852 855 856 856 857
845 845 844 843 842 842 840 837 837 835 833 832 833 844 839 837 833 833 833 832 832 831 832 832 838 849 855 865 876 863 863 853 859 857 859 863 860 849 848 849 847 850 852 851 850
844 845 844 844 842 841 838 835 838 839 833 837 837 840 836 835 833 833 833 832 832 834 845 835 852 860 852 847 846 849 851 854 854 847 854 857 851 841 838 844 847 846 846 844 842
846 845 843 844 841 840 837 838 842 844 844 834 835 837 836 835 836 833 833 836 836 847 836 848 855 844 841 842 846 848 853 855 850 850 853 851 847 835 834 832 832 834 838 837 837
846 844 843 843 840 839 838 842 843 842 847 838 836 836 836 835 836 835 833 835 839 842 841 853 846 840 843 845 849 849 855 852 854 849 849 848 847 830 825 825 829 829 827 828 827
845 844 842 840 842 840 840 843 843 841 863 849 842 837 834 833 839 832 833 836 837 842 839 844 841 844 846 849 848 859 849 849 853 861 866 845 866 837 828 827 823 823 824 821 820
844 844 842 841 841 840 843 842 841 842 884 845 840 834 833 839 836 835 833 835 842 841 844 848 847 847 851 846 843 853 849 853 853 861 860 849 866 838 826 825 820 817 816 815 813
844 842 841 841 841 842 842 841 841 866 876 847 837 839 841 837 836 834 836 835 834 838 838 842 838 840 843 841 844 847 852 856 857 867 875 850 855 839 828 812 806 806 807 805 807
843 842 842 841 842 841 840 840 867 878 840 848 843 838 841 841 839 839 842 847 852 852 856 846 845 842 840 847 846 851 865 877 868 876 867 840 850 825 801 797 792 796 797 798 800
843 842 842 841 841 840 839 854 869 843 846 837 837 838 847 837 839 841 844 852 839 843 858 860 858 848 841 844 848 856 862 876 862 872 861 841 853 813 790 786 784 787 790 795 797
843 842 842 841 841 840 847 871 862 844 838 840 840 848 846 839 841 840 846 846 838 839 855 855 846 844 843 842 846 849 858 851 859 859 868 849 825 796 787 787 789 790 792 793 794
842 841 840 840 840 841 857 863 844 836 836 838 849 844 846 847 846 848 839 834 840 837 838 843 856 844 846 844 845 847 849 859 867 864 865 850 832 810 796 791 789 791 790 788 789
842 845 839 839 840 848 864 859 839 837 836 842 845 844 842 842 842 843 837 834 833 840 839 841 848 850 847 852 848 857 854 853 859 864 866 864 832 791 782 778 780 780 779 778 780
843 852 839 839 853 854 856 841 839 839 838 841 842 844 843 839 841 842 838 836 833 837 844 840 853 856 845 836 835 837 842 846 858 847 858 864 828 777 773 768 771 771 770 770 771
847 846 839 839 858 858 846 837 834 839 840 843 843 842 838 840 846 840 832 838 836 838 842 843 854 858 842 841 838 839 837 834 840 848 850 855 811 774 772 770 769 768 768 768 767
849 852 843 842 844 844 844 843 841 835 835 834 837 836 840 843 840 840 834 840 839 840 843 843 851 846 844 829 831 838 833 832 835 851 841 823 786 770 772 772 769 766 763 762 762
850 850 843 851 846 844 842 841 842 840 837 834 838 839 843 847 839 842 835 843 843 843 843 847 852 843 832 828 827 824 823 825 831 812 823 783 799 763 762 767 763 760 757 755 757
853 853 848 848 841 839 842 840 838 835 837 839 841 832 839 842 834 835 830 841 836 847 847 846 844 834 832 821 823 825 813 810 807 801 798 788 785 745 752 754 760 756 754 753 751
850 849 850 851 845 843 843 836 832 830 825 826 831 833 835 833 830 829 824 825 826 836 844 847 848 842 840 814 816 825 796 788 786 790 785 795 757 745 756 756 753 748 747 744 740
Wind_Speed
5 5 4 3 5 6 5 2 1 4 7 6 6 7 10 10 10 12 10 9 7 6 9 10 9 10 1 3 5 3 4 3 3 8 5 6 4 3 2 6 3 4 2 6 36
5 5 6 5 6 5 3 0 3 6 7 6 6 8 9 8 6 15 15 13 11 10 7 10 7 4 3 4 4 4 4 1 2 3 6 7 6 5 4 4 2 5 12 29 35
5 5 7 6 5 4 0 3 5 7 7 7 7 8 9 9 4 5 15 12 10 9 7 7 9 1 4 3 4 3 3 3 4 4 9 9 5 6 7 5 8 10 13 22 25
6 7 7 6 5 1 2 4 7 7 8 8 8 8 8 4 3 10 13 11 8 9 7 7 4 4 4 3 2 5 7 4 1 4 5 8 8 5 7 5 3 15 30 24 21
7 7 6 5 4 0 3 5 6 7 8 8 8 8 4 5 1 9 13 12 7 10 10 2 4 4 5 5 3 4 3 4 3 6 6 5 4 5 8 6 8 22 22 20 21
7 7 5 5 1 1 3 4 5 7 6 6 8 9 2 1 0 5 11 15 9 6 11 11 3 5 6 3 3 3 6 6 2 2 2 4 3 2 6 9 9 17 15 16 22
7 7 6 2 1 2 4 6 6 4 5 6 9 7 5 5 1 4 7 10 13 10 3 9 4 6 4 4 6 9 5 2 5 4 3 2 5 10 3 10 12 10 11 12 20
8 7 3 0 2 3 6 8 7 4 3 6 7 4 1 1 2 3 4 2 8 7 5 4 10 7 5 3 4 2 4 1 4 7 3 4 7 4 11 11 11 11 10 12 18
7 3 2 1 3 6 7 8 5 5 4 6 5 1 3 2 1 3 4 4 9 6 2 1 2 4 3 4 3 1 3 4 2 9 4 5 7 4 9 10 11 11 11 12 12
4 2 1 3 5 9 9 8 10 10 4 4 5 4 1 2 2 3 2 5 3 7 2 0 3 3 3 3 4 4 3 2 5 7 6 4 12 8 10 9 12 10 10 13 14
3 1 3 5 6 9 10 4 5 4 5 3 1 3 1 3 3 2 2 4 2 1 2 3 4 2 5 3 1 3 3 3 2 4 5 8 12 13 10 11 9 10 11 14 16
1 2 4 7 6 7 6 5 2 0 3 2 2 1 1 1 2 2 8 1 1 3 3 5 1 3 2 0 1 3 4 4 1 4 5 6 12 12 7 10 15 15 12 14 11
2 4 6 10 5 5 7 5 2 1 2 2 3 2 3 1 2 2 3 2 4 3 0 4 3 2 1 2 2 2 4 1 3 2 5 4 8 4 3 4 8 10 8 10 14
5 6 7 10 2 3 4 5 4 1 4 3 3 3 1 0 3 0 1 2 3 3 2 2 2 1 3 3 3 3 1 2 4 3 3 4 4 5 6 7 7 10 11 11 11
6 6 6 7 6 3 1 5 2 2 3 3 2 1 2 3 0 2 1 1 3 1 4 4 5 4 4 3 3 5 1 2 2 2 3 2 3 7 4 6 10 11 12 12 11
6 7 6 3 1 3 5 6 1 4 3 2 3 1 1 3 2 2 2 1 1 1 2 3 1 3 4 1 3 3 2 1 2 2 2 5 5 6 5 9 5 7 11 13 11
6 6 6 4 2 7 5 2 4 3 1 2 2 3 4 4 3 5 2 2 3 1 2 1 3 1 2 1 2 3 4 3 2 2 6 2 1 10 7 8 10 12 12 11 9
8 6 4 3 5 5 2 5 1 3 1 2 1 1 3 3 3 4 3 3 4 3 0 4 5 5 3 3 4 5 6 4 4 3 4 2 6 6 8 7 5 8 8 8 9
7 4 4 4 5 4 5 2 5 1 2 1 1 1 2 2 1 2 6 4 2 5 6 1 2 0 3 2 4 0 3 3 1 2 2 4 8 9 1 3 6 7 6 9 9
5 3 4 4 3 2 4 5 3 2 3 1 1 5 2 3 2 4 3 2 4 2 2 2 3 3 1 1 2 4 1 1 2 3 5 6 6 8 6 11 9 8 11 11 9
2 3 1 2 1 4 3 6 1 2 2 1 2 3 4 3 5 3 5 1 2 3 2 2 3 2 1 6 7 2 3 3 1 5 5 3 6 7 8 10 11 11 12 11 11
3 1 1 3 3 1 3 4 1 2 1 1 1 3 3 2 3 4 5 1 3 6 5 3 4 4 10 2 1 3 7 6 4 5 4 3 8 6 8 7 8 10 9 9 10
0 3 0 2 2 2 5 3 4 5 5 5 3 5 1 3 3 5 2 2 2 2 3 2 2 3 6 2 2 4 5 5 2 2 6 4 8 5 4 5 7 6 8 9 9
2 2 3 3 1 4 1 5 4 1 2 4 4 0 3 3 5 5 4 2 2 1 3 1 3 7 6 5 4 4 6 7 6 3 4 12 21 22 11 8 9 8 9 10 10
1 4 3 2 3 3 2 3 4 3 1 2 2 6 7 5 3 6 4 0 0 3 2 4 5 5 8 11 5 8 10 10 11 18 10 24 11 23 10 9 9 9 8 7 9
0 2 4 3 3 4 5 4 6 5 7 5 6 4 7 6 6 2 2 4 7 2 6 3 5 3 5 9 12 9 15 14 18 21 18 25 24 32 22 16 9 10 9 10 10
4 2 3 4 4 2 4 5 4 2 2 2 8 1 6 8 3 5 6 5 6 9 8 6 4 2 6 3 4 7 18 18 8 6 11 14 27 20 12 12 10 9 9 11 12
Wind_Direction
162 165 169 152 152 143 127 123 10 5 7 4 354 352 360 14 85 66 29 341 344 352 341 341 331 259 212 34 17 29 63 136 145 163 176 161 126 55 95 116 69 26 119 182 161
148 159 144 158 145 130 123 351 356 352 10 347 340 341 350 2 88 49 3 353 342 344 341 356 343 30 42 26 10 69 90 155 311 114 159 156 131 138 127 131 132 67 78 135 154
157 152 145 146 131 120 62 351 349 356 1 334 328 331 342 356 59 342 353 351 349 338 318 314 298 10 67 59 360 25 127 141 351 47 134 152 141 156 145 217 194 178 153 151 158
152 148 145 142 125 114 330 354 351 355 349 329 322 318 339 14 181 342 2 357 7 358 332 325 343 96 81 50 63 90 45 101 10 55 119 153 141 176 195 224 236 166 162 160 172
150 149 140 135 142 141 339 2 352 355 341 334 330 322 345 43 165 341 10 5 42 42 35 323 10 117 120 117 45 87 117 52 63 58 108 123 175 204 230 202 119 143 160 171 176
147 140 148 152 163 347 349 359 340 335 347 351 333 324 332 151 228 339 17 21 27 22 23 39 78 99 94 57 82 111 106 137 176 111 85 146 249 145 248 145 133 152 172 178 183
152 148 149 157 302 335 334 319 315 317 344 335 323 344 50 196 17 45 10 10 27 45 59 33 329 72 111 100 150 141 102 175 190 196 198 126 274 236 141 144 159 171 178 185 194
153 143 145 119 310 319 324 304 302 300 331 323 315 327 208 143 140 359 6 20 7 20 79 77 58 92 90 105 75 216 100 160 200 169 199 141 263 306 162 155 181 189 191 193 204
142 138 120 339 331 332 310 298 306 312 296 324 330 173 281 190 237 335 340 334 321 278 352 359 76 106 67 109 30 279 245 202 241 192 146 183 257 212 187 178 198 201 198 202 207
141 124 44 3 343 331 316 295 297 314 317 307 289 31 244 247 296 315 294 319 298 317 286 294 65 78 42 93 223 232 240 275 203 220 191 199 257 253 214 199 208 206 206 206 208
121 90 12 340 332 332 335 344 15 351 33 140 220 223 71 337 274 199 318 307 265 320 259 220 69 216 207 185 220 257 259 273 216 201 188 231 259 259 228 211 216 220 213 216 214
113 13 351 335 334 343 342 69 117 189 337 229 221 196 226 295 345 6 347 105 331 284 257 14 237 184 152 185 300 303 285 290 344 202 200 272 265 260 189 214 209 213 217 221 218
359 351 344 339 346 41 68 62 53 63 109 230 228 216 194 182 270 230 45 298 228 294 330 159 213 140 227 296 279 296 221 226 238 259 244 306 291 233 236 250 209 223 220 218 214
2 354 343 350 45 32 57 4 340 32 63 248 254 230 182 91 294 269 91 181 306 216 293 159 166 191 253 262 135 302 351 354 312 26 239 132 275 276 225 243 226 225 219 224 218
356 348 348 11 337 61 344 336 4 90 8 162 176 171 154 177 41 239 234 79 217 254 90 254 172 193 245 228 142 232 32 282 256 256 345 241 95 265 145 247 246 232 225 229 224
349 355 350 16 351 355 318 329 118 45 266 154 142 226 183 215 222 171 263 279 208 332 212 223 182 189 199 172 168 119 329 313 344 83 327 228 141 270 195 211 239 224 227 226 221
337 352 360 348 327 321 329 37 43 144 43 187 216 187 225 211 233 180 205 241 193 55 265 321 234 163 149 102 54 86 63 317 329 336 227 211 63 244 240 222 195 201 217 218 209
326 321 326 323 327 335 24 53 208 244 200 234 168 295 220 160 240 203 294 274 213 121 210 206 297 183 174 189 175 185 153 177 252 228 270 359 240 250 240 212 197 196 205 200 205
325 336 300 301 326 347 73 80 222 249 270 52 44 256 250 204 240 221 209 212 167 171 180 325 265 91 54 26 140 158 191 189 254 339 34 233 280 304 182 210 211 196 180 207 211
335 319 254 252 309 34 79 237 242 154 130 100 201 190 296 216 207 172 257 195 156 117 121 181 298 192 252 44 235 202 252 110 6 250 258 282 274 235 228 239 234 235 227 228 219
354 24 259 256 165 60 181 232 288 58 49 182 248 282 247 261 206 242 258 256 110 149 96 195 138 247 74 200 187 120 249 211 165 165 203 278 263 221 222 219 211 226 227 228 218
22 358 357 157 63 208 195 221 232 171 67 240 201 257 237 286 282 240 238 288 36 148 175 207 158 239 228 204 143 202 198 167 153 241 229 171 267 266 252 217 192 223 232 236 224
62 248 141 181 176 261 290 259 208 178 196 175 240 216 44 252 258 232 233 263 41 161 171 176 244 315 313 348 337 221 222 215 145 95 213 164 263 302 248 256 249 250 249 245 230
39 338 325 45 218 164 287 268 239 349 225 186 215 185 185 242 229 270 234 197 140 82 114 99 225 201 214 230 145 212 220 215 173 189 201 229 263 275 261 265 267 259 255 250 223
55 252 209 258 291 210 205 262 296 292 226 207 290 208 194 244 230 227 225 91 210 181 136 154 234 215 253 254 235 238 241 217 201 229 211 260 230 259 270 238 252 247 248 231 229
92 21 351 284 287 212 183 235 212 252 167 233 218 215 215 229 213 270 218 191 218 174 178 195 249 233 266 252 242 247 254 238 230 235 247 253 272 263 281 287 269 259 228 234 235
335 359 103 283 315 44 232 230 248 353 246 216 203 181 237 247 270 259 232 201 203 167 191 169 204 181 262 277 332 286 242 233 224 202 222 239 246 273 274 272 268 258 247 248 246